Location: Flotzheim
(48.8375°N, 10.8136°E)
Time: 04:18:16
(UTC+00:00)

Cosmos 1328 - Pass Details

Date: 23 January 2021
Orbit: 528 x 555 km, 82.5° (Epoch: 26 February)

Event Time Altitude Azimuth Distance (km) Brightness Sun altitude
Rises 17:31:46 0° 167° (SSE) 2,714 7.4 -14.9°
Reaches altitude 10° 17:34:02 10° 159° (SSE) 1,822 6.4 -15.2°
Maximum altitude 17:37:44 36° 92° (E) 875 4.3 -15.8°
Enters shadow 17:39:03 28° 52° (NE) 1,045 4.7 -16.0°
